weather.gov     
National Weather Service

Regional Weather Roundup
NWS Homepage
This page is being discontinued on March 12, 2014.
The same data is available at this site. Please update your bookmarks.
Thank you, and we apologize for the inconvenience.
Please send an email to SR-SRH.Webmaster@noaa.gov with any concerns.


Current Version
Previous Version:    01  02  03  04  05  06  07  08  09  10  11  12  13  14  15  16  17  18  19  20  21  22  23  24  25  26  27  28  29  30  
   31  32  33  34  35  36  37  38  39  40  41  42  43  44  45  46  47  48  49  50  51  52  53  54  55  56  57  58  59  60  
[Printable]
199
ASHW40 PHFO 300443
RWRHI

WEATHER ROUNDUP FOR HAWAII
NATIONAL WEATHER SERVICE HONOLULU HI
600 PM HST TUE JUL 29 2014

THIS IS AN AUTOMATED REPORT THAT HAS NOT BEEN QUALITY CONTROLLED.

NOTE..."FAIR" INDICATES FEW OR NO CLOUDS BELOW 12,000 FEET WITH NO
SIGNIFICANT WEATHER AND/OR OBSTRUCTIONS TO VISIBILITY.

* - THESE SITES REPORT LIMITED FIELDS

HIZ001>004-300500-
KAUAI-NIIHAU-

CITY           SKY/WX    TMP DP  RH WIND       PRES   REMARKS
LIHUE APT      MOSUNNY   80  70  71 NE12      30.02S
PORT ALLEN*      N/A     84 N/A N/A E16G23      N/A
POIPU*           N/A     82 N/A N/A NE9G17      N/A
PRINCEVILLE*   NOT AVBL
KOKOLE POINT*  NOT AVBL
MOLOAA DAIRY*  NOT AVBL
WAIMEA HTS*      N/A     82  64  54 W3G9        N/A
PUU OPAE*        N/A     72  64  78 CALM        N/A
PUU LUA*       NOT AVBL
MAKAHA RIDGE*  NOT AVBL
$$

HIZ005>011-300500-
OAHU-

CITY           SKY/WX    TMP DP  RH WIND       PRES   REMARKS
HONOLULU       MOSUNNY   82  64  54 NE14G24   29.99S
KALAELOA       MOSUNNY   83  64  52 E6        30.00R
KANEOHE MCB    MOSUNNY   84  66  54 E7        30.01S
WHEELER FIELD  FAIR      79  65  60 E7        30.02S
BELLOWS*         N/A    N/A N/A N/A NE16        N/A
KAHUKU*          N/A    N/A N/A N/A E10G20      N/A
WHEELER*       NOT AVBL
WAIANAE HARBOR NOT AVBL
DILLINGHAM*      N/A     84  66  54 NE9G16      N/A
KAHUKU TRN*      N/A     79  68  69 E10G20      N/A
KAWAILOA*      NOT AVBL
KII*             N/A     81  72  74 CALM        N/A
MAKUA RANGE*     N/A     84  64  51 E9G21       N/A
OAHU FOREST NW   N/A     66  64  94 NW20G32     N/A
SCHOFIELD BRK*   N/A     75  63  64 MISG        N/A
SCHOFIELD S*   NOT AVBL
WAIANAE VLY*     N/A     77  63  61 SE3G18      N/A
KUAOKALA*        N/A     75  64  69 CALM        N/A
HONOULIUULI*   NOT AVBL
MOKUOLOE IS*     N/A    N/A N/A N/A MISG        N/A
PALEHUA*         N/A     79  63  57 CALM        N/A
WAIAWA PHB*    NOT AVBL
$$

HIZ012>013-300500-
MOLOKAI-

CITY           SKY/WX    TMP DP  RH WIND       PRES   REMARKS
MOLOKAI AIRPT  SUNNY     79  68  69 NE9G22    30.01R
KALAUPAPA      NOT AVBL
MAKAPULAPAI*     N/A     79  68  69 E17G25      N/A
MOLOKAI 1*       N/A     70  59  68 SE3G18      N/A
PUU ALII*        N/A     66  59  77 E3G9        N/A
$$

HIZ016-300500-
KAHOOLAWE-

CITY           SKY/WX    TMP DP  RH WIND       PRES   REMARKS
KAHOOLAWE*       N/A     75 N/A N/A NE14G23     N/A
HAKIOAWA*        N/A     77  65  66 MISG      30.11S
HONOKANAIA*      N/A     83  68  60 NE17G29   29.99S
KANELOA*         N/A     77  68  73 E20G32    30.09S
KEALIALALO*      N/A    N/A N/A N/A E13G31      N/A
LUA MAKIKA*    NOT AVBL
$$

HIZ014>015-300500-
LANAI-

CITY           SKY/WX    TMP DP  RH WIND       PRES   REMARKS
LANAI CITY     FAIR      77  65  66 NE23G30   30.03S
LANAI 1*         N/A     73  70  88 NE23G37     N/A
$$

HIZ017>028-300500-
MAUI-

CITY           SKY/WX    TMP DP  RH WIND       PRES   REMARKS
KAHULUI        MOSUNNY   82  66  58 NE16G29   29.99S
KAPALUA-W MAUI MOSUNNY   81  66  61 NE17      29.99S
HANA AIRPORT   MOSUNNY   79  68  69 E7        30.05S
HANA*            N/A     79 N/A N/A E7          N/A
HALEAKALA SUMM   N/A     50  19  29 N6          N/A
MAALAEA BAY*   NOT AVBL
HALEAKALA*     NOT AVBL
KAUPO GAP*       N/A     66  66 100 NE2G10      N/A
KULA 1*          N/A     61  56  84 NW5         N/A
$$

HIZ023>026-300500-
BIG ISLAND OF HAWAII COAST AND LOWER SLOPES-

CITY           SKY/WX    TMP DP  RH WIND       PRES   REMARKS
KAILUA KONA    PTSUNNY   83  70  64 S7        29.95R
HILO           CLOUDY    80  69  69 NE8       30.01R
HONOKAA*       NOT AVBL
KAWAIHAE MWT*    N/A     84 N/A N/A W10         N/A
KAWAIHAE*        N/A     81 N/A N/A SW10        N/A
SOUTH POINT*     N/A     75 N/A N/A NE17G26     N/A
UPOLU AIRPORT*   N/A    N/A N/A N/A NE17G25     N/A
KAMUELA*       CLEAR     70  63  78 NE13      30.11S
HAKALAU*         N/A     54  52  94 NE3         N/A
KALOKO-HONOKO*   N/A     82  70  65 W5        29.95R
PALI 2*          N/A    N/A N/A N/A N18G26      N/A
KEALAKOMO*       N/A     86  66  51 NE17G29     N/A
KAUPULEHU*       N/A     79  64  61 W8G16       N/A
KAPAPALA*        N/A     74  67  79 SW5G13      N/A
LOWER KAHUKU*  NOT AVBL
PUHE CS*       NOT AVBL
PUHO CS*         N/A     81  68  63 NW2         N/A
PTA KEAMUKU*     N/A     70  59  68 NE15G25     N/A
WAIKOLOA*        N/A     79  61  53 NE14G21     N/A
$$

HIZ027>028-300500-
BIG ISLAND OF HAWAII INTERIOR AND SUMMMITS-

CITY           SKY/WX    TMP DP  RH WIND       PRES   REMARKS
BRADSHAW FIELD SUNNY     64  48  56 W8G16     30.33R
MK VISITOR CEN NOT AVBL
MAUNA KEA*       N/A     43   1  17 N2          N/A
MAUNA LOA*       N/A     43  39  87 MISG        N/A
MAUNA LOA 1*     N/A     43  41  93 MISG        N/A
PTA KIPUKA*      N/A     64  55  72 N5G13       N/A
PTA RANGE 17*    N/A     66  52  59 W12G18      N/A
PTA WEST*        N/A     70  57  64 VRB12G18    N/A
NENE CABIN*    NOT AVBL
AHUMOA*          N/A     59  54  82 N5G13       N/A
PTA PORTABLE*  NOT AVBL
PUU MALI*      NOT AVBL
$$

HIC003-300500-
NORTHWEST ISLANDS-

CITY           SKY/WX    TMP DP  RH WIND       PRES   REMARKS
MIDWAY ISLAND  MOSUNNY   84  73  70 SW10      30.01S HX  91
MIDWAY NOS*    NOT AVBL
FRENCH FRIGATE NOT AVBL
$$

PHZ110>124-180-300500-
BUOY REPORTS

STATION/POSITION TIME  TEMP    WIND        PRES    WAVE   SWELL
                       AIR SEA DIR/SP/G            HT/PER HT/DIR
                 (UTC) (F)     (DEG/KT/KT) (MB)    (FT/S) (FT/D)
BUOY 51001       NOT AVBL
BUOY 51101       NOT AVBL
BUOY 51100       0400   78      70/ 12       N/A
BUOY 51003       0400   81 82   70/ 14/ 17 1014.5S   7/ 9   5
BUOY 51004       0305   79 80   60/ 16/ 19 1014.0    7/ 9   5/100
BARBERS PT BUOY  NOT AVBL
WAIMEA BAY BUOY  0400      80                N/A     3/13
KAILUA BAY BUOY  0400      80                N/A     5/ 9   2/ 80
LANAI BUOY       0400      81                N/A     3/14   2/210
BARBERS PT 2     0400      81                N/A     4/14   2/210
PAUWELA MAUI     0400      79                N/A     5/ 9   2/ 90
HILO             NOT AVBL
KANEOHE BAY BUOY 0400      79                N/A     4/ 5
HANALEI KAUAI    NOT AVBL
KAHULUI HARBOR   0400   78 81   30/ 16/ 19 1015.7R
HONOLULU HARBOR  0400   81      30/  4/ 11 1015.6F
KILO NALU        NOT AVBL
HILO HARBOR      0400   79      50/ 10/ 13 1015.7R
MOKUOLOE         0400   80 83   70/ 12/ 15 1016.5S
NAWILIWILI       0400      82                N/A
WHOTS BUOY       NOT AVBL
BUOY 51028       NOT AVBL
$$

......................KEY........................................
  SKY/WX - SKY CONDITIONS/PRESENT WEATHER
  TMP    - TEMPERATURE IN FAHRENHEIT
  DWPT   - DEWPOINT IN FAHRENHEIT
  RH     - RELATIVE HUMIDITY IN PERCENT
  WIND   - DIRECTION AND SPEED /MPH FOR ISLANDS...KTS FOR BUOYS/
  PRES   - MEAN SEA LEVEL PRESSURE IN INCHES OF HG
  VSB    - VISIBILITY IN MILES
  HX     - HEAT INDEX
  WCI    - WIND CHILL INDEX
  VRB    - VARIABLE WIND DIRECTION
  N/A    - NOT AVAILABLE




U.S. Dept. of Commerce
NOAA National Weather Service
1325 East West Highway
Silver Spring, MD 20910
E-mail: w-nws.webmaster@noaa.gov
Page last modified: May 16, 2007
NATIONAL WEATHER SERVICE: for Safety, for Work, for Fun - FOR LIFE